Location: Augirein
(42.9320°N, 0.9181°E)
Time: 19:00:06
(UTC+00:00)

NOSS 3-1 (A) - Pass Details

Date: 20 June 2021
Orbit: 729 x 1483 km, 63.4° (Epoch: 23 July)

Event Time Altitude Azimuth Distance (km) Brightness Sun altitude
Exits shadow 00:42:42 47° 228° (SW) 1,069 3.4 -22.8°
Maximum altitude 00:44:18 80° 306° (NW) 862 3.2 -22.8°
Drops below altitude 10° 00:50:30 10° 35° (NE) 2,703 6.8 -22.5°
Sets 00:53:19 0° 36° (NE) 3,772 7.7 -22.4°
